Location: Morisset
(33.1080°S, 151.4871°E)
Time: 09:13:03
(UTC+00:00)

Meteor 2-5 Rocket - Pass Details

Date: 29 October 2020
Orbit: 833 x 911 km, 81.2° (Epoch: 27 November)

Event Time Altitude Azimuth Distance (km) Brightness Sun altitude
Rises 17:30:46 0° 192° (SSW) 3,413 7.1 -17.3°
Reaches altitude 10° 17:33:12 10° 194° (SSW) 2,471 6.3 -16.9°
Maximum altitude 17:38:44 66° 275° (W) 921 3.6 -15.9°
Drops below altitude 10° 17:44:15 10° 356° (N) 2,460 5.8 -14.9°
Sets 17:46:40 0° 359° (N) 3,396 6.6 -14.4°
